Preview of NWS' New Version of Forecast
This preview is not operational and should not be used for support decisions.

Regional Weather Roundup (RWR)

Issued by National Weather Service (NWS)

                            
000
ASUS43 KBIS 160210
RWRND 

NORTH DAKOTA REGIONAL WEATHER ROUNDUP
NATIONAL WEATHER SERVICE BISMARCK ND
900 PM CDT SUN SEP 15 2019

NOTE: "FAIR" INDICATES FEW OR NO CLOUDS BELOW 12,000 FEET WITH NO
SIGNIFICANT WEATHER AND/OR OBSTRUCTIONS TO VISIBILITY.


NDZ001>003-009>011-017-160300-
NORTHWEST NORTH DAKOTA
  
CITY           SKY/WX    TMP DP  RH WIND       PRES   REMARKS
WILLISTON      PTCLDY    66  59  78 N5        29.73S                  
MINOT          CLEAR     71  59  65 SE6       29.77R                  
MINOT AFB      CLEAR     66  58  76 SE6       29.75S                  
$$
 
NDZ018>021-031>035-040>046-160300-
SOUTHWEST NORTH DAKOTA
  
CITY           SKY/WX    TMP DP  RH WIND       PRES   REMARKS
BISMARCK       CLEAR     72  61  68 E9        29.80S                  
DICKINSON      CLEAR     67  53  61 SE9       29.79R                  
GARRISON         N/A     72  60  66 E6        29.78S                  
HETTINGER ARPT CLEAR     65  56  72 CALM      29.82S                  
$$
 
NDZ004>008-012>016-024-026-027-054-160300-
NORTHEAST NORTH DAKOTA
  
CITY           SKY/WX    TMP DP  RH WIND       PRES   REMARKS
GRAND FORKS    CLEAR     70  62  76 SE8       29.84S                  
GRND FRKS AFB  CLEAR     69  65  86 S7        29.85S                  
DEVILS LAKE    CLEAR     67  62  84 SE9       29.84S                  
$$
 
NDZ022-023-025-028>030-036>039-047>053-160300-
SOUTHEAST NORTH DAKOTA
  
CITY           SKY/WX    TMP DP  RH WIND       PRES   REMARKS
FARGO          CLEAR     75  66  73 SE9       29.86S                  
JAMESTOWN      CLEAR     70  65  84 SE8       29.85R                  
$$